DELTA 1 DEB, 10836

Orbit data source: Space-Track

DELTA 1 DEB, 10836 is space debris in SSO originally from a launch on Thu, 29 Jul 1976 UTC launched from the Air Force Western Test Range (AFWTR). Debris objects in space refer to the collection of defunct objects orbiting the Earth. Examples of debris include non-operational satellites, rocket bodies, and fragments generated from explosions, collisions, or faulty payload assembly.

Loading next visibility...
Identifier
10836, 1976-077CG
Orbit
SSO
Country
Flag of USUS
Related business
Manufacturer
Unknown
Mission
Spacecraft
Bus & Motor
Unknown
Mass
Unknown
Launch date (UTC)
1976-07-29 (50 years ago)
Launch vehicle
Unknown
Launch site
Air Force Western Test Range (AFWTR)
Object type
Payload
Rocket body
Debris
Shape & HBR
Unknown shape, 0.1 m
Radar Cross Section
Small (<0.1 m²)

Expand to show TLE details & history
Last TLE update: 13 hours ago

TLE from 13 hours ago
0 DELTA 1 DEB
1 10836U 76077CG  26126.27629138 -.00000106  00000-0 -70782-3 0  9996
2 10836 102.0983 243.0160 0182744 117.7601 272.7404 12.07733887548568
Epoch: 2026-05-06T06:37Z
TLE epoch observation values (Epoch: 2026-05-06T06:37:51.575Z)
Latitude
27.7606°
Longitude
-87.03493°
Altitude
1,645.14 km
Speed
7.054 km/s
True Right ascension
15h 46m 16s
True Declination
27° 38' 05"
Sunlit
Object was in full shadow at epoch
Visualization orbit readout
Latitude
Unknown
Longitude
Unknown
Altitude
Unknown
Speed
Unknown
Apparent Right ascension
Unknown
Apparent Declination
Unknown
Sunlit
N/A
Visualization observer readout
Local Sidereal Time
03:56:12
Azimuth
Unknown
Elevation
Unknown
Doppler factor
Unknown
Orbital elements
Apogee altitude
1,790.641 km
Perigee altitude
1,497.44 km
Semi-major axis
8,022.178 km
Eccentricity
0.01827
Inclination
102.0983°
RAAN
243.016°
Arg. of periapsis
117.7601°
True anomaly
270.64688°
Mean anomaly
272.7404°
Eccentric anomaly
271.69381°
Mean motion
3.02068 °/min
Orbital period
119.18 mins
BSTAR
-0.00070782
Loading maneuver chart data...
Computing Atmospheric mass density...
Loading historical data...
Loading historical data...
Loading historical data...
Loading historical data...
Loading historical data...
Loading historical data...
Loading historical data...

Documentation

Showing up to 5 results
|